Time,TemperatureF,DewpointF,PressureIn,WindDirection,WindDirectionDegrees,WindSpeedMPH,WindSpeedGustMPH,Humidity,HourlyPrecipIn,Conditions,Clouds,dailyrainin,SoftwareType,DateUTC
2013-08-31 00:01:00,69.5,69.0,29.93,NNW,337,4.2,10.0,100,0.00,,,0.00,Rainwise IP-100,2013-08-31 04:01:00,
2013-08-31 00:06:00,69.6,69.0,29.93,WNW,292,2.6,8.0,100,0.00,,,0.00,Rainwise IP-100,2013-08-31 04:06:00,
2013-08-31 00:11:00,69.6,69.0,29.93,WNW,292,10.0,11.0,100,0.00,,,0.00,Rainwise IP-100,2013-08-31 04:11:00,
2013-08-31 00:16:00,69.6,69.0,29.93,WSW,247,5.1,10.0,100,0.00,,,0.00,Rainwise IP-100,2013-08-31 04:16:00,
2013-08-31 00:21:00,69.7,69.0,29.92,WNW,292,4.2,10.0,100,0.00,,,0.00,Rainwise IP-100,2013-08-31 04:21:00,
2013-08-31 00:26:00,69.6,69.0,29.92,WNW,292,3.5,9.0,100,0.00,,,0.00,Rainwise IP-100,2013-08-31 04:26:00,
2013-08-31 00:31:00,69.6,69.0,29.92,West,270,2.1,10.0,100,0.00,,,0.00,Rainwise IP-100,2013-08-31 04:31:00,
2013-08-31 00:36:00,69.7,69.0,29.93,WSW,247,3.5,10.0,100,0.00,,,0.00,Rainwise IP-100,2013-08-31 04:36:00,
2013-08-31 00:41:00,69.7,69.0,29.93,West,270,4.0,11.0,100,0.00,,,0.00,Rainwise IP-100,2013-08-31 04:41:00,
2013-08-31 00:46:00,69.8,69.0,29.93,WNW,292,4.0,10.0,100,0.00,,,0.00,Rainwise IP-100,2013-08-31 04:46:00,
2013-08-31 00:51:00,69.8,69.0,29.93,West,270,5.8,11.0,100,0.00,,,0.00,Rainwise IP-100,2013-08-31 04:51:00,
2013-08-31 00:56:00,69.8,69.0,29.93,WSW,247,5.4,7.0,100,0.00,,,0.00,Rainwise IP-100,2013-08-31 04:56:00,
2013-08-31 01:01:00,69.8,69.0,29.93,WNW,292,3.0,9.0,100,0.00,,,0.00,Rainwise IP-100,2013-08-31 05:01:00,
2013-08-31 01:06:00,69.8,69.0,29.92,WSW,247,5.1,11.0,100,0.00,,,0.00,Rainwise IP-100,2013-08-31 05:06:00,
2013-08-31 01:11:00,69.8,69.0,29.92,WNW,292,9.1,11.0,100,0.00,,,0.00,Rainwise IP-100,2013-08-31 05:11:00,
2013-08-31 01:16:00,69.9,70.0,29.92,WNW,292,2.8,11.0,100,0.00,,,0.00,Rainwise IP-100,2013-08-31 05:16:00,
2013-08-31 01:21:00,69.9,70.0,29.92,WNW,292,5.1,13.0,100,0.00,,,0.00,Rainwise IP-100,2013-08-31 05:21:00,
2013-08-31 01:26:00,69.9,70.0,29.91,NW,315,4.9,8.0,100,0.00,,,0.00,Rainwise IP-100,2013-08-31 05:26:00,
2013-08-31 01:31:00,69.9,70.0,29.91,WSW,247,2.6,7.0,100,0.00,,,0.00,Rainwise IP-100,2013-08-31 05:31:00,
2013-08-31 01:32:00,69.9,70.0,29.91,WNW,292,3.7,7.0,100,0.00,,,0.00,Rainwise IP-100,2013-08-31 05:32:00,
2013-08-31 01:37:00,69.9,70.0,29.92,WNW,292,1.9,8.0,100,0.00,,,0.00,Rainwise IP-100,2013-08-31 05:37:00,
2013-08-31 01:42:00,69.9,70.0,29.91,WNW,292,2.3,7.0,100,0.00,,,0.00,Rainwise IP-100,2013-08-31 05:42:00,
2013-08-31 01:47:00,69.9,70.0,29.91,WSW,247,4.9,11.0,100,0.00,,,0.00,Rainwise IP-100,2013-08-31 05:47:00,
2013-08-31 01:52:00,70.0,70.0,29.92,West,270,8.4,11.0,100,0.00,,,0.00,Rainwise IP-100,2013-08-31 05:52:00,
2013-08-31 01:57:00,70.1,70.0,29.92,SW,225,3.7,10.0,100,0.00,,,0.00,Rainwise IP-100,2013-08-31 05:57:00,
2013-08-31 02:02:00,70.2,70.0,29.92,WNW,292,1.4,9.0,100,0.00,,,0.00,Rainwise IP-100,2013-08-31 06:02:00,
2013-08-31 02:07:00,70.3,70.0,29.92,WNW,292,2.3,8.0,100,0.00,,,0.00,Rainwise IP-100,2013-08-31 06:07:00,
2013-08-31 02:12:00,70.3,70.0,29.91,WNW,292,4.4,7.0,100,0.00,,,0.00,Rainwise IP-100,2013-08-31 06:12:00,
2013-08-31 02:17:00,70.3,69.0,29.92,WNW,292,4.4,9.0,99,0.00,,,0.00,Rainwise IP-100,2013-08-31 06:17:00,
2013-08-31 02:22:00,70.3,69.0,29.91,WSW,247,4.7,8.0,99,0.00,,,0.00,Rainwise IP-100,2013-08-31 06:22:00,
2013-08-31 02:27:00,70.3,69.0,29.91,West,270,5.1,11.0,99,0.00,,,0.00,Rainwise IP-100,2013-08-31 06:27:00,
2013-08-31 02:32:00,70.3,69.0,29.91,WNW,292,4.2,12.0,99,0.00,,,0.00,Rainwise IP-100,2013-08-31 06:32:00,
2013-08-31 02:37:00,70.4,70.0,29.91,WNW,292,6.5,12.0,99,0.00,,,0.00,Rainwise IP-100,2013-08-31 06:37:00,
2013-08-31 02:42:00,70.4,70.0,29.91,West,270,1.9,13.0,100,0.00,,,0.00,Rainwise IP-100,2013-08-31 06:42:00,
2013-08-31 02:47:00,70.4,70.0,29.90,WNW,292,7.5,9.0,99,0.00,,,0.00,Rainwise IP-100,2013-08-31 06:47:00,
2013-08-31 02:52:00,70.4,70.0,29.91,WSW,247,2.8,9.0,99,0.00,,,0.00,Rainwise IP-100,2013-08-31 06:52:00,
2013-08-31 02:57:00,70.4,70.0,29.90,WNW,292,6.3,15.0,99,0.00,,,0.00,Rainwise IP-100,2013-08-31 06:57:00,
2013-08-31 03:02:00,70.3,70.0,29.90,WNW,292,3.5,9.0,100,0.00,,,0.00,Rainwise IP-100,2013-08-31 07:02:00,
2013-08-31 03:07:00,70.3,70.0,29.90,West,270,4.7,13.0,100,0.00,,,0.00,Rainwise IP-100,2013-08-31 07:07:00,
2013-08-31 03:12:00,70.3,70.0,29.90,WNW,292,3.3,9.0,100,0.00,,,0.00,Rainwise IP-100,2013-08-31 07:12:00,
2013-08-31 03:17:00,70.3,70.0,29.91,WNW,292,4.0,11.0,100,0.00,,,0.00,Rainwise IP-100,2013-08-31 07:17:00,
2013-08-31 03:22:00,70.3,70.0,29.91,WSW,247,5.8,10.0,100,0.00,,,0.00,Rainwise IP-100,2013-08-31 07:22:00,
2013-08-31 03:27:00,70.3,70.0,29.90,WNW,292,7.0,13.0,100,0.00,,,0.00,Rainwise IP-100,2013-08-31 07:27:00,
2013-08-31 03:32:00,70.2,70.0,29.90,WNW,292,6.3,13.0,100,0.00,,,0.00,Rainwise IP-100,2013-08-31 07:32:00,
2013-08-31 03:37:00,70.2,70.0,29.90,West,270,4.7,13.0,100,0.00,,,0.00,Rainwise IP-100,2013-08-31 07:37:00,
2013-08-31 03:42:00,70.2,70.0,29.90,WSW,247,7.2,10.0,100,0.00,,,0.00,Rainwise IP-100,2013-08-31 07:42:00,
2013-08-31 03:47:00,70.2,70.0,29.91,WSW,247,8.9,13.0,100,0.00,,,0.00,Rainwise IP-100,2013-08-31 07:47:00,
2013-08-31 03:52:00,70.1,70.0,29.91,West,270,4.0,12.0,100,0.00,,,0.00,Rainwise IP-100,2013-08-31 07:52:00,
2013-08-31 03:57:00,70.1,70.0,29.91,WNW,292,8.9,14.0,100,0.00,,,0.00,Rainwise IP-100,2013-08-31 07:57:00,
2013-08-31 04:02:00,70.1,70.0,29.91,WSW,247,4.2,11.0,100,0.00,,,0.00,Rainwise IP-100,2013-08-31 08:02:00,
2013-08-31 04:07:00,70.1,70.0,29.91,West,270,5.4,10.0,100,0.00,,,0.00,Rainwise IP-100,2013-08-31 08:07:00,
2013-08-31 04:12:00,70.1,70.0,29.91,WNW,292,4.7,12.0,100,0.00,,,0.00,Rainwise IP-100,2013-08-31 08:12:00,
2013-08-31 04:17:00,70.1,70.0,29.91,West,270,6.5,11.0,100,0.00,,,0.00,Rainwise IP-100,2013-08-31 08:17:00,
2013-08-31 04:22:00,70.1,70.0,29.90,WSW,247,6.5,10.0,100,0.00,,,0.00,Rainwise IP-100,2013-08-31 08:22:00,
2013-08-31 04:27:00,70.1,70.0,29.90,West,270,11.4,13.0,100,0.00,,,0.00,Rainwise IP-100,2013-08-31 08:27:00,
2013-08-31 04:32:00,70.1,70.0,29.91,West,270,3.0,11.0,100,0.00,,,0.00,Rainwise IP-100,2013-08-31 08:32:00,
2013-08-31 04:37:00,70.1,70.0,29.90,WNW,292,5.4,10.0,100,0.00,,,0.00,Rainwise IP-100,2013-08-31 08:37:00,
2013-08-31 04:42:00,70.0,70.0,29.91,WNW,292,6.5,12.0,100,0.00,,,0.00,Rainwise IP-100,2013-08-31 08:42:00,
2013-08-31 04:47:00,70.0,70.0,29.90,West,270,8.2,11.0,100,0.00,,,0.00,Rainwise IP-100,2013-08-31 08:47:00,
2013-08-31 04:52:00,70.0,70.0,29.90,WNW,292,4.9,15.0,100,0.00,,,0.00,Rainwise IP-100,2013-08-31 08:52:00,
2013-08-31 04:57:00,69.9,70.0,29.91,WNW,292,7.2,11.0,100,0.00,,,0.00,Rainwise IP-100,2013-08-31 08:57:00,
2013-08-31 05:02:00,69.9,70.0,29.90,WSW,247,5.6,13.0,100,0.00,,,0.00,Rainwise IP-100,2013-08-31 09:02:00,
2013-08-31 05:07:00,70.0,70.0,29.91,WNW,292,5.6,11.0,100,0.00,,,0.00,Rainwise IP-100,2013-08-31 09:07:00,
2013-08-31 05:12:00,70.0,70.0,29.91,WSW,247,4.4,14.0,100,0.00,,,0.00,Rainwise IP-100,2013-08-31 09:12:00,
2013-08-31 05:17:00,70.0,70.0,29.91,West,270,3.3,14.0,100,0.00,,,0.00,Rainwise IP-100,2013-08-31 09:17:00,
2013-08-31 05:22:00,70.0,70.0,29.91,WSW,247,5.8,10.0,100,0.00,,,0.00,Rainwise IP-100,2013-08-31 09:22:00,
2013-08-31 05:27:00,70.0,70.0,29.91,WNW,292,5.8,11.0,100,0.00,,,0.00,Rainwise IP-100,2013-08-31 09:27:00,
2013-08-31 05:32:00,70.0,70.0,29.91,West,270,6.1,10.0,100,0.00,,,0.00,Rainwise IP-100,2013-08-31 09:32:00,
2013-08-31 05:37:00,70.0,70.0,29.91,WSW,247,8.6,11.0,100,0.00,,,0.00,Rainwise IP-100,2013-08-31 09:37:00,
2013-08-31 05:42:00,69.9,70.0,29.91,WNW,292,4.2,12.0,100,0.00,,,0.00,Rainwise IP-100,2013-08-31 09:42:00,
2013-08-31 05:47:00,69.9,70.0,29.91,SW,225,4.4,8.0,100,0.00,,,0.00,Rainwise IP-100,2013-08-31 09:47:00,
2013-08-31 05:52:00,70.0,70.0,29.91,WNW,292,5.4,8.0,100,0.00,,,0.00,Rainwise IP-100,2013-08-31 09:52:00,
2013-08-31 05:57:00,70.0,70.0,29.91,SSW,202,5.6,10.0,100,0.00,,,0.00,Rainwise IP-100,2013-08-31 09:57:00,
2013-08-31 06:02:00,70.0,70.0,29.91,WNW,292,5.8,7.0,100,0.00,,,0.00,Rainwise IP-100,2013-08-31 10:02:00,
2013-08-31 06:07:00,70.0,70.0,29.91,WNW,292,3.5,8.0,100,0.00,,,0.00,Rainwise IP-100,2013-08-31 10:07:00,
2013-08-31 06:12:00,70.0,70.0,29.91,WSW,247,2.3,9.0,100,0.00,,,0.00,Rainwise IP-100,2013-08-31 10:12:00,
2013-08-31 06:17:00,70.0,70.0,29.91,WSW,247,3.7,13.0,100,0.00,,,0.00,Rainwise IP-100,2013-08-31 10:17:00,
2013-08-31 06:22:00,70.0,70.0,29.92,WNW,292,2.6,11.0,100,0.00,,,0.00,Rainwise IP-100,2013-08-31 10:22:00,
2013-08-31 06:27:00,70.0,70.0,29.92,WNW,292,7.2,8.0,100,0.00,,,0.00,Rainwise IP-100,2013-08-31 10:27:00,
2013-08-31 06:32:00,70.0,70.0,29.92,WNW,292,4.9,9.0,100,0.00,,,0.00,Rainwise IP-100,2013-08-31 10:32:00,
2013-08-31 06:37:00,70.0,70.0,29.92,West,270,5.6,11.0,100,0.00,,,0.00,Rainwise IP-100,2013-08-31 10:37:00,
2013-08-31 06:42:00,70.0,70.0,29.92,SSW,202,3.3,9.0,100,0.00,,,0.00,Rainwise IP-100,2013-08-31 10:42:00,
2013-08-31 06:47:00,70.0,70.0,29.92,WSW,247,1.4,7.0,100,0.00,,,0.00,Rainwise IP-100,2013-08-31 10:47:00,
2013-08-31 06:52:00,70.0,70.0,29.92,WSW,247,2.8,7.0,100,0.00,,,0.00,Rainwise IP-100,2013-08-31 10:52:00,
2013-08-31 06:57:00,70.1,70.0,29.91,West,270,4.2,8.0,100,0.00,,,0.00,Rainwise IP-100,2013-08-31 10:57:00,
2013-08-31 07:02:00,70.1,70.0,29.91,West,270,3.7,9.0,100,0.00,,,0.00,Rainwise IP-100,2013-08-31 11:02:00,
2013-08-31 07:07:00,70.1,70.0,29.91,WNW,292,1.9,9.0,100,0.00,,,0.00,Rainwise IP-100,2013-08-31 11:07:00,
2013-08-31 07:12:00,70.2,70.0,29.91,SW,225,5.1,11.0,100,0.00,,,0.00,Rainwise IP-100,2013-08-31 11:12:00,
2013-08-31 07:17:00,70.3,70.0,29.91,WNW,292,2.6,10.0,100,0.00,,,0.00,Rainwise IP-100,2013-08-31 11:17:00,
2013-08-31 07:22:00,70.4,70.0,29.91,WSW,247,3.0,12.0,100,0.00,,,0.00,Rainwise IP-100,2013-08-31 11:22:00,
2013-08-31 07:27:00,70.5,70.0,29.92,SSW,202,1.4,11.0,100,0.00,,,0.00,Rainwise IP-100,2013-08-31 11:27:00,
2013-08-31 07:32:00,70.6,70.0,29.92,WNW,292,4.2,12.0,99,0.00,,,0.00,Rainwise IP-100,2013-08-31 11:32:00,
2013-08-31 07:37:00,70.7,70.0,29.92,West,270,3.0,12.0,99,0.00,,,0.00,Rainwise IP-100,2013-08-31 11:37:00,
2013-08-31 07:42:00,70.6,70.0,29.92,NW,315,2.6,11.0,99,0.00,,,0.00,Rainwise IP-100,2013-08-31 11:42:00,
2013-08-31 07:47:00,70.5,70.0,29.92,WNW,292,4.9,12.0,99,0.00,,,0.00,Rainwise IP-100,2013-08-31 11:47:00,
2013-08-31 07:51:00,70.4,70.0,29.92,WNW,292,3.3,11.0,99,0.00,,,0.00,Rainwise IP-100,2013-08-31 11:51:00,
2013-08-31 07:56:00,70.3,69.0,29.92,WSW,247,1.6,7.0,99,0.00,,,0.00,Rainwise IP-100,2013-08-31 11:56:00,
2013-08-31 08:01:00,70.3,69.0,29.92,WNW,292,5.4,8.0,99,0.00,,,0.00,Rainwise IP-100,2013-08-31 12:01:00,
2013-08-31 08:06:00,70.3,69.0,29.92,WSW,247,3.7,6.0,99,0.00,,,0.00,Rainwise IP-100,2013-08-31 12:06:00,
2013-08-31 08:11:00,70.4,70.0,29.92,WNW,292,4.9,9.0,99,0.00,,,0.00,Rainwise IP-100,2013-08-31 12:11:00,
2013-08-31 08:16:00,70.4,70.0,29.93,WNW,292,3.3,14.0,99,0.00,,,0.00,Rainwise IP-100,2013-08-31 12:16:00,
2013-08-31 08:21:00,70.5,70.0,29.93,WNW,292,4.2,11.0,99,0.00,,,0.00,Rainwise IP-100,2013-08-31 12:21:00,
2013-08-31 08:26:00,70.5,70.0,29.92,WNW,292,4.2,8.0,99,0.00,,,0.00,Rainwise IP-100,2013-08-31 12:26:00,
2013-08-31 08:31:00,70.6,70.0,29.93,West,270,3.0,11.0,99,0.00,,,0.00,Rainwise IP-100,2013-08-31 12:31:00,
2013-08-31 08:36:00,70.7,70.0,29.92,NNW,337,4.7,9.0,99,0.00,,,0.00,Rainwise IP-100,2013-08-31 12:36:00,
2013-08-31 08:41:00,70.8,70.0,29.92,WSW,247,3.3,12.0,99,0.00,,,0.00,Rainwise IP-100,2013-08-31 12:41:00,
2013-08-31 08:46:00,70.9,70.0,29.92,WNW,292,6.3,9.0,99,0.00,,,0.00,Rainwise IP-100,2013-08-31 12:46:00,
2013-08-31 08:51:00,70.9,70.0,29.92,WSW,247,7.9,12.0,98,0.00,,,0.00,Rainwise IP-100,2013-08-31 12:51:00,
2013-08-31 08:56:00,71.0,70.0,29.92,WNW,292,7.0,13.0,98,0.00,,,0.00,Rainwise IP-100,2013-08-31 12:56:00,
2013-08-31 09:01:00,71.1,70.0,29.92,WNW,292,6.8,11.0,98,0.00,,,0.00,Rainwise IP-100,2013-08-31 13:01:00,
2013-08-31 09:06:00,71.2,70.0,29.92,SW,225,4.7,13.0,98,0.00,,,0.00,Rainwise IP-100,2013-08-31 13:06:00,
2013-08-31 09:11:00,71.3,70.0,29.93,West,270,4.4,13.0,98,0.00,,,0.00,Rainwise IP-100,2013-08-31 13:11:00,
2013-08-31 09:16:00,71.5,71.0,29.92,West,270,7.5,10.0,98,0.00,,,0.00,Rainwise IP-100,2013-08-31 13:16:00,
2013-08-31 09:21:00,71.7,71.0,29.92,WNW,292,4.4,11.0,97,0.00,,,0.00,Rainwise IP-100,2013-08-31 13:21:00,
2013-08-31 09:26:00,71.9,71.0,29.92,WNW,292,7.9,14.0,97,0.00,,,0.00,Rainwise IP-100,2013-08-31 13:26:00,
2013-08-31 09:31:00,72.0,71.0,29.92,WNW,292,0.0,12.0,97,0.00,,,0.00,Rainwise IP-100,2013-08-31 13:31:00,
2013-08-31 09:36:00,72.3,71.0,29.92,WNW,292,9.6,13.0,96,0.00,,,0.00,Rainwise IP-100,2013-08-31 13:36:00,
2013-08-31 09:41:00,72.5,71.0,29.93,WSW,247,3.5,14.0,96,0.00,,,0.00,Rainwise IP-100,2013-08-31 13:41:00,
2013-08-31 09:46:00,72.5,71.0,29.93,WNW,292,7.0,13.0,96,0.00,,,0.00,Rainwise IP-100,2013-08-31 13:46:00,
2013-08-31 09:51:00,72.2,71.0,29.92,WNW,292,5.6,11.0,95,0.00,,,0.00,Rainwise IP-100,2013-08-31 13:51:00,
2013-08-31 09:56:00,71.8,70.0,29.93,WNW,292,12.1,12.1,95,0.00,,,0.00,Rainwise IP-100,2013-08-31 13:56:00,
2013-08-31 10:01:00,71.7,70.0,29.93,WNW,292,5.6,15.0,96,0.00,,,0.00,Rainwise IP-100,2013-08-31 14:01:00,
2013-08-31 10:06:00,71.7,70.0,29.93,NW,315,4.4,12.0,96,0.00,,,0.00,Rainwise IP-100,2013-08-31 14:06:00,
2013-08-31 10:11:00,71.8,70.0,29.93,WNW,292,11.4,11.4,96,0.00,,,0.00,Rainwise IP-100,2013-08-31 14:11:00,
2013-08-31 10:16:00,71.9,71.0,29.93,West,270,4.7,11.0,96,0.00,,,0.00,Rainwise IP-100,2013-08-31 14:16:00,
2013-08-31 10:21:00,72.0,71.0,29.93,WNW,292,10.3,10.3,96,0.00,,,0.00,Rainwise IP-100,2013-08-31 14:21:00,
2013-08-31 10:26:00,72.0,71.0,29.93,WSW,247,5.1,13.0,96,0.00,,,0.00,Rainwise IP-100,2013-08-31 14:26:00,
2013-08-31 10:31:00,72.1,70.0,29.93,West,270,3.7,9.0,95,0.00,,,0.00,Rainwise IP-100,2013-08-31 14:31:00,
2013-08-31 10:36:00,72.2,71.0,29.93,West,270,5.6,14.0,95,0.00,,,0.00,Rainwise IP-100,2013-08-31 14:36:00,
2013-08-31 10:41:00,72.3,71.0,29.93,WNW,292,7.0,12.0,95,0.00,,,0.00,Rainwise IP-100,2013-08-31 14:41:00,
2013-08-31 10:46:00,72.4,71.0,29.93,WNW,292,7.7,11.0,95,0.00,,,0.00,Rainwise IP-100,2013-08-31 14:46:00,
2013-08-31 10:51:00,72.5,71.0,29.93,West,270,5.6,14.0,94,0.00,,,0.00,Rainwise IP-100,2013-08-31 14:51:00,
2013-08-31 10:56:00,72.7,71.0,29.93,WSW,247,6.1,11.0,94,0.00,,,0.00,Rainwise IP-100,2013-08-31 14:56:00,
2013-08-31 11:01:00,73.0,71.0,29.93,NNW,337,5.1,12.0,94,0.00,,,0.00,Rainwise IP-100,2013-08-31 15:01:00,
2013-08-31 11:06:00,73.3,71.0,29.92,WNW,292,3.7,13.0,93,0.00,,,0.00,Rainwise IP-100,2013-08-31 15:06:00,
2013-08-31 11:11:00,73.3,71.0,29.93,WSW,247,5.1,12.0,93,0.00,,,0.00,Rainwise IP-100,2013-08-31 15:11:00,
2013-08-31 11:16:00,73.2,71.0,29.92,NNW,337,2.6,14.0,93,0.00,,,0.00,Rainwise IP-100,2013-08-31 15:16:00,
2013-08-31 11:21:00,73.3,71.0,29.93,WNW,292,7.9,17.0,93,0.00,,,0.00,Rainwise IP-100,2013-08-31 15:21:00,
2013-08-31 11:26:00,73.7,71.0,29.92,WNW,292,9.3,15.0,92,0.00,,,0.00,Rainwise IP-100,2013-08-31 15:26:00,
2013-08-31 11:31:00,74.1,71.0,29.92,WSW,247,4.0,13.0,92,0.00,,,0.00,Rainwise IP-100,2013-08-31 15:31:00,
2013-08-31 11:36:00,74.2,71.0,29.91,SW,225,4.4,14.0,91,0.00,,,0.00,Rainwise IP-100,2013-08-31 15:36:00,
2013-08-31 11:41:00,74.1,71.0,29.92,West,270,8.4,12.0,91,0.00,,,0.00,Rainwise IP-100,2013-08-31 15:41:00,
2013-08-31 11:46:00,73.9,71.0,29.92,WSW,247,11.9,15.0,92,0.00,,,0.00,Rainwise IP-100,2013-08-31 15:46:00,
2013-08-31 11:51:00,73.8,71.0,29.92,WSW,247,4.0,14.0,92,0.00,,,0.00,Rainwise IP-100,2013-08-31 15:51:00,
2013-08-31 11:56:00,73.7,71.0,29.92,WNW,292,11.4,15.0,92,0.00,,,0.00,Rainwise IP-100,2013-08-31 15:56:00,
2013-08-31 12:01:00,73.2,71.0,29.92,NNE,22,7.0,18.0,92,0.00,,,0.00,Rainwise IP-100,2013-08-31 16:01:00,
2013-08-31 12:06:00,72.9,70.0,29.92,WNW,292,8.2,17.0,92,0.00,,,0.00,Rainwise IP-100,2013-08-31 16:06:00,
2013-08-31 12:11:00,72.7,70.0,29.91,West,270,11.7,15.0,93,0.00,,,0.00,Rainwise IP-100,2013-08-31 16:11:00,
2013-08-31 12:16:00,72.6,70.0,29.92,WSW,247,2.8,15.0,93,0.00,,,0.00,Rainwise IP-100,2013-08-31 16:16:00,
2013-08-31 12:21:00,72.5,70.0,29.92,West,270,4.4,17.0,93,0.00,,,0.00,Rainwise IP-100,2013-08-31 16:21:00,
2013-08-31 12:26:00,72.5,71.0,29.92,WSW,247,7.2,11.0,94,0.00,,,0.00,Rainwise IP-100,2013-08-31 16:26:00,
2013-08-31 12:31:00,72.4,70.0,29.92,West,270,6.5,19.0,94,0.00,,,0.00,Rainwise IP-100,2013-08-31 16:31:00,
2013-08-31 12:36:00,72.3,70.0,29.92,WNW,292,12.6,14.0,94,0.00,,,0.00,Rainwise IP-100,2013-08-31 16:36:00,
2013-08-31 12:41:00,72.2,70.0,29.92,WSW,247,6.1,12.0,94,0.00,,,0.00,Rainwise IP-100,2013-08-31 16:41:00,
2013-08-31 12:46:00,72.2,70.0,29.92,WNW,292,6.3,14.0,94,0.00,,,0.00,Rainwise IP-100,2013-08-31 16:46:00,
2013-08-31 12:51:00,72.2,70.0,29.92,WSW,247,4.9,12.0,94,0.00,,,0.00,Rainwise IP-100,2013-08-31 16:51:00,
2013-08-31 12:56:00,72.1,70.0,29.92,WNW,292,6.1,13.0,95,0.00,,,0.00,Rainwise IP-100,2013-08-31 16:56:00,
2013-08-31 13:01:00,72.1,70.0,29.92,West,270,11.0,12.0,95,0.00,,,0.00,Rainwise IP-100,2013-08-31 17:01:00,
2013-08-31 13:06:00,72.0,70.0,29.92,WSW,247,6.1,14.0,95,0.00,,,0.00,Rainwise IP-100,2013-08-31 17:06:00,
2013-08-31 13:11:00,72.1,70.0,29.92,WNW,292,1.2,12.0,95,0.00,,,0.00,Rainwise IP-100,2013-08-31 17:11:00,
2013-08-31 13:16:00,72.3,71.0,29.92,WSW,247,6.3,14.0,95,0.00,,,0.00,Rainwise IP-100,2013-08-31 17:16:00,
2013-08-31 13:21:00,72.5,71.0,29.92,WNW,292,5.4,11.0,95,0.00,,,0.00,Rainwise IP-100,2013-08-31 17:21:00,
2013-08-31 13:26:00,72.6,71.0,29.92,WNW,292,7.7,13.0,95,0.00,,,0.00,Rainwise IP-100,2013-08-31 17:26:00,
2013-08-31 13:31:00,72.7,71.0,29.92,WNW,292,5.1,13.0,95,0.00,,,0.00,Rainwise IP-100,2013-08-31 17:31:00,
2013-08-31 13:36:00,72.7,71.0,29.92,West,270,8.2,21.0,95,0.00,,,0.00,Rainwise IP-100,2013-08-31 17:36:00,
2013-08-31 13:41:00,72.8,71.0,29.92,SW,225,7.5,12.0,95,0.00,,,0.00,Rainwise IP-100,2013-08-31 17:41:00,
2013-08-31 13:46:00,72.9,71.0,29.92,WNW,292,2.1,12.0,95,0.00,,,0.00,Rainwise IP-100,2013-08-31 17:46:00,
2013-08-31 13:51:00,73.0,71.0,29.91,SSW,202,10.3,18.0,95,0.00,,,0.00,Rainwise IP-100,2013-08-31 17:51:00,
2013-08-31 13:56:00,73.1,71.0,29.92,WSW,247,5.4,11.0,95,0.00,,,0.00,Rainwise IP-100,2013-08-31 17:56:00,
2013-08-31 14:01:00,73.1,71.0,29.92,WNW,292,4.0,10.0,94,0.00,,,0.00,Rainwise IP-100,2013-08-31 18:01:00,
2013-08-31 14:06:00,73.2,71.0,29.91,WSW,247,0.0,13.0,94,0.00,,,0.00,Rainwise IP-100,2013-08-31 18:06:00,
2013-08-31 14:11:00,73.3,71.0,29.91,SSW,202,8.6,10.0,94,0.00,,,0.00,Rainwise IP-100,2013-08-31 18:11:00,
2013-08-31 14:16:00,73.4,71.0,29.92,WSW,247,4.4,12.0,94,0.00,,,0.00,Rainwise IP-100,2013-08-31 18:16:00,
2013-08-31 14:21:00,73.3,71.0,29.91,WSW,247,3.3,15.0,94,0.00,,,0.00,Rainwise IP-100,2013-08-31 18:21:00,
2013-08-31 14:26:00,73.2,71.0,29.91,WNW,292,5.4,12.0,94,0.00,,,0.00,Rainwise IP-100,2013-08-31 18:26:00,
2013-08-31 14:31:00,73.2,72.0,29.92,SSE,157,5.6,12.0,95,0.00,,,0.00,Rainwise IP-100,2013-08-31 18:31:00,
2013-08-31 14:36:00,73.0,71.0,29.92,West,270,3.0,9.0,95,0.00,,,0.00,Rainwise IP-100,2013-08-31 18:36:00,
2013-08-31 14:41:00,72.9,71.0,29.92,SSW,202,2.6,11.0,95,0.00,,,0.00,Rainwise IP-100,2013-08-31 18:41:00,
2013-08-31 14:46:00,73.1,72.0,29.92,WSW,247,2.1,12.0,96,0.00,,,0.00,Rainwise IP-100,2013-08-31 18:46:00,
2013-08-31 14:51:00,73.3,72.0,29.91,WNW,292,6.8,10.0,95,0.00,,,0.00,Rainwise IP-100,2013-08-31 18:51:00,
2013-08-31 14:56:00,73.5,72.0,29.91,NW,315,1.6,15.0,95,0.00,,,0.00,Rainwise IP-100,2013-08-31 18:56:00,
2013-08-31 15:01:00,73.6,72.0,29.91,WSW,247,1.6,13.0,95,0.00,,,0.00,Rainwise IP-100,2013-08-31 19:01:00,
2013-08-31 15:06:00,73.7,72.0,29.91,WSW,247,7.9,9.0,95,0.00,,,0.00,Rainwise IP-100,2013-08-31 19:06:00,
2013-08-31 15:11:00,73.7,72.0,29.91,SSW,202,4.4,11.0,95,0.00,,,0.00,Rainwise IP-100,2013-08-31 19:11:00,
2013-08-31 15:16:00,73.6,72.0,29.91,WNW,292,8.6,13.0,95,0.00,,,0.00,Rainwise IP-100,2013-08-31 19:16:00,
2013-08-31 15:21:00,73.5,72.0,29.91,SSW,202,3.5,12.0,95,0.00,,,0.00,Rainwise IP-100,2013-08-31 19:21:00,
2013-08-31 15:26:00,73.6,72.0,29.92,WSW,247,2.6,11.0,95,0.00,,,0.00,Rainwise IP-100,2013-08-31 19:26:00,
2013-08-31 15:31:00,73.6,72.0,29.92,WNW,292,5.8,12.0,95,0.00,,,0.00,Rainwise IP-100,2013-08-31 19:31:00,
2013-08-31 15:36:00,73.5,72.0,29.91,WSW,247,2.8,12.0,95,0.00,,,0.00,Rainwise IP-100,2013-08-31 19:36:00,
2013-08-31 15:41:00,73.4,72.0,29.91,West,270,7.0,10.0,95,0.00,,,0.00,Rainwise IP-100,2013-08-31 19:41:00,
2013-08-31 15:46:00,73.4,72.0,29.91,SSW,202,2.6,9.0,96,0.00,,,0.00,Rainwise IP-100,2013-08-31 19:46:00,
2013-08-31 15:51:00,73.4,72.0,29.91,WNW,292,5.1,10.0,96,0.00,,,0.00,Rainwise IP-100,2013-08-31 19:51:00,
2013-08-31 15:56:00,73.5,72.0,29.91,SSE,157,0.0,12.0,96,0.00,,,0.00,Rainwise IP-100,2013-08-31 19:56:00,
2013-08-31 16:01:00,73.6,72.0,29.91,WNW,292,3.7,11.0,96,0.00,,,0.00,Rainwise IP-100,2013-08-31 20:01:00,
2013-08-31 16:06:00,73.6,72.0,29.90,WSW,247,7.9,9.0,96,0.00,,,0.00,Rainwise IP-100,2013-08-31 20:06:00,
2013-08-31 16:11:00,73.7,72.0,29.91,WNW,292,6.5,10.0,96,0.00,,,0.00,Rainwise IP-100,2013-08-31 20:11:00,
2013-08-31 16:16:00,73.8,72.0,29.91,West,270,2.8,11.0,96,0.00,,,0.00,Rainwise IP-100,2013-08-31 20:16:00,
2013-08-31 16:21:00,73.8,72.0,29.91,WNW,292,4.7,14.0,96,0.00,,,0.00,Rainwise IP-100,2013-08-31 20:21:00,
2013-08-31 16:26:00,74.0,73.0,29.91,WNW,292,7.2,11.0,96,0.00,,,0.00,Rainwise IP-100,2013-08-31 20:26:00,
2013-08-31 16:31:00,74.1,73.0,29.90,West,270,1.9,9.0,96,0.00,,,0.00,Rainwise IP-100,2013-08-31 20:31:00,
2013-08-31 16:36:00,74.1,72.0,29.91,SSW,202,8.2,8.2,95,0.00,,,0.00,Rainwise IP-100,2013-08-31 20:36:00,
2013-08-31 16:41:00,74.2,73.0,29.91,SSW,202,3.0,12.0,95,0.00,,,0.00,Rainwise IP-100,2013-08-31 20:41:00,
2013-08-31 16:46:00,74.2,73.0,29.90,SW,225,2.6,11.0,95,0.00,,,0.00,Rainwise IP-100,2013-08-31 20:46:00,
2013-08-31 16:51:00,74.3,73.0,29.91,WSW,247,3.3,10.0,95,0.00,,,0.00,Rainwise IP-100,2013-08-31 20:51:00,
2013-08-31 16:56:00,74.3,73.0,29.90,WSW,247,4.0,9.0,95,0.00,,,0.00,Rainwise IP-100,2013-08-31 20:56:00,
2013-08-31 17:01:00,74.4,73.0,29.91,SSW,202,4.7,11.0,95,0.00,,,0.00,Rainwise IP-100,2013-08-31 21:01:00,
2013-08-31 17:06:00,74.5,73.0,29.90,SSW,202,3.7,11.0,95,0.00,,,0.00,Rainwise IP-100,2013-08-31 21:06:00,
2013-08-31 17:11:00,74.5,73.0,29.91,WSW,247,4.9,9.0,94,0.00,,,0.00,Rainwise IP-100,2013-08-31 21:11:00,
2013-08-31 17:16:00,74.6,73.0,29.90,WNW,292,5.8,7.0,94,0.00,,,0.00,Rainwise IP-100,2013-08-31 21:16:00,
2013-08-31 17:21:00,74.6,73.0,29.90,WSW,247,3.3,9.0,94,0.00,,,0.00,Rainwise IP-100,2013-08-31 21:21:00,
2013-08-31 17:26:00,74.6,73.0,29.90,WSW,247,2.6,7.0,94,0.00,,,0.00,Rainwise IP-100,2013-08-31 21:26:00,
2013-08-31 17:31:00,74.6,73.0,29.90,SW,225,1.4,10.0,94,0.00,,,0.00,Rainwise IP-100,2013-08-31 21:31:00,
2013-08-31 17:36:00,74.7,73.0,29.90,West,270,2.1,8.0,94,0.00,,,0.00,Rainwise IP-100,2013-08-31 21:36:00,
2013-08-31 17:41:00,74.7,73.0,29.90,WSW,247,3.3,8.0,94,0.00,,,0.00,Rainwise IP-100,2013-08-31 21:41:00,
2013-08-31 17:46:00,74.8,72.0,29.90,SSW,202,2.1,10.0,93,0.00,,,0.00,Rainwise IP-100,2013-08-31 21:46:00,
2013-08-31 17:51:00,74.8,72.0,29.90,WNW,292,4.0,7.0,93,0.00,,,0.00,Rainwise IP-100,2013-08-31 21:51:00,
2013-08-31 17:56:00,74.8,72.0,29.90,WNW,292,3.5,7.0,93,0.00,,,0.00,Rainwise IP-100,2013-08-31 21:56:00,
2013-08-31 18:01:00,74.7,72.0,29.91,WSW,247,2.6,8.0,93,0.00,,,0.00,Rainwise IP-100,2013-08-31 22:01:00,
2013-08-31 18:06:00,74.7,72.0,29.90,WNW,292,3.0,7.0,93,0.00,,,0.00,Rainwise IP-100,2013-08-31 22:06:00,
2013-08-31 18:11:00,74.6,72.0,29.91,WSW,247,1.6,7.0,93,0.00,,,0.00,Rainwise IP-100,2013-08-31 22:11:00,
2013-08-31 18:16:00,74.4,72.0,29.90,SW,225,0.0,7.0,93,0.00,,,0.00,Rainwise IP-100,2013-08-31 22:16:00,
2013-08-31 18:21:00,74.3,72.0,29.90,SW,225,1.4,8.0,93,0.00,,,0.00,Rainwise IP-100,2013-08-31 22:21:00,
2013-08-31 18:26:00,74.2,72.0,29.90,West,270,3.0,6.0,93,0.00,,,0.00,Rainwise IP-100,2013-08-31 22:26:00,
2013-08-31 18:31:00,74.0,72.0,29.90,SSW,202,1.6,5.0,94,0.00,,,0.00,Rainwise IP-100,2013-08-31 22:31:00,
2013-08-31 18:36:00,73.8,72.0,29.90,WSW,247,4.4,5.0,94,0.00,,,0.00,Rainwise IP-100,2013-08-31 22:36:00,
2013-08-31 18:41:00,73.6,72.0,29.91,SW,225,1.6,6.0,94,0.00,,,0.00,Rainwise IP-100,2013-08-31 22:41:00,
2013-08-31 18:46:00,73.4,71.0,29.90,WNW,292,1.6,7.0,94,0.00,,,0.00,Rainwise IP-100,2013-08-31 22:46:00,
2013-08-31 18:51:00,73.4,71.0,29.91,ESE,112,1.6,3.0,94,0.00,,,0.00,Rainwise IP-100,2013-08-31 22:51:00,
2013-08-31 18:56:00,73.2,72.0,29.90,SW,225,3.3,4.0,95,0.00,,,0.00,Rainwise IP-100,2013-08-31 22:56:00,
2013-08-31 19:01:00,73.0,71.0,29.90,SSW,202,3.0,6.0,95,0.00,,,0.00,Rainwise IP-100,2013-08-31 23:01:00,
2013-08-31 19:06:00,72.9,71.0,29.91,WSW,247,2.3,4.0,95,0.00,,,0.00,Rainwise IP-100,2013-08-31 23:06:00,
2013-08-31 19:11:00,72.7,71.0,29.91,SW,225,4.4,5.0,95,0.00,,,0.00,Rainwise IP-100,2013-08-31 23:11:00,
2013-08-31 19:16:00,72.5,71.0,29.91,WSW,247,4.2,6.0,96,0.00,,,0.00,Rainwise IP-100,2013-08-31 23:16:00,
2013-08-31 19:21:00,72.4,71.0,29.91,SW,225,1.9,5.0,96,0.00,,,0.00,Rainwise IP-100,2013-08-31 23:21:00,
2013-08-31 19:26:00,72.2,71.0,29.92,East,90,5.1,6.0,96,0.00,,,0.00,Rainwise IP-100,2013-08-31 23:26:00,
2013-08-31 19:31:00,72.1,71.0,29.91,SSW,202,3.7,10.0,96,0.00,,,0.00,Rainwise IP-100,2013-08-31 23:31:00,
2013-08-31 19:36:00,72.0,71.0,29.91,WSW,247,0.0,7.0,97,0.00,,,0.00,Rainwise IP-100,2013-08-31 23:36:00,
2013-08-31 19:41:00,71.9,71.0,29.91,SW,225,3.0,7.0,97,0.00,,,0.00,Rainwise IP-100,2013-08-31 23:41:00,
2013-08-31 19:46:00,71.9,71.0,29.91,NNE,22,0.0,7.0,97,0.00,,,0.00,Rainwise IP-100,2013-08-31 23:46:00,
2013-08-31 19:51:00,71.8,71.0,29.92,SW,225,0.0,5.0,97,0.00,,,0.00,Rainwise IP-100,2013-08-31 23:51:00,
2013-08-31 19:56:00,71.8,71.0,29.91,SSW,202,4.0,6.0,97,0.00,,,0.00,Rainwise IP-100,2013-08-31 23:56:00,
2013-08-31 20:01:00,71.7,71.0,29.92,SSW,202,1.4,6.0,97,0.00,,,0.00,Rainwise IP-100,2013-09-01 00:01:00,
2013-08-31 20:06:00,71.8,71.0,29.92,SSE,157,3.5,7.0,97,0.00,,,0.00,Rainwise IP-100,2013-09-01 00:06:00,
2013-08-31 20:11:00,71.8,71.0,29.92,WSW,247,0.0,4.0,97,0.00,,,0.00,Rainwise IP-100,2013-09-01 00:11:00,
2013-08-31 20:16:00,71.8,71.0,29.92,NNW,337,3.3,6.0,97,0.00,,,0.00,Rainwise IP-100,2013-09-01 00:16:00,
2013-08-31 20:21:00,71.7,71.0,29.91,SSW,202,5.6,5.6,97,0.00,,,0.00,Rainwise IP-100,2013-09-01 00:21:00,
2013-08-31 20:26:00,71.7,71.0,29.92,WSW,247,1.4,5.0,97,0.00,,,0.00,Rainwise IP-100,2013-09-01 00:26:00,
2013-08-31 20:31:00,71.8,71.0,29.91,WNW,292,1.9,4.0,97,0.00,,,0.00,Rainwise IP-100,2013-09-01 00:31:00,
2013-08-31 20:36:00,71.7,71.0,29.92,SSW,202,0.0,5.0,97,0.00,,,0.00,Rainwise IP-100,2013-09-01 00:36:00,
2013-08-31 20:41:00,71.7,71.0,29.92,WSW,247,4.2,4.2,97,0.00,,,0.00,Rainwise IP-100,2013-09-01 00:41:00,
2013-08-31 20:46:00,71.7,71.0,29.92,SSW,202,0.0,4.0,97,0.00,,,0.00,Rainwise IP-100,2013-09-01 00:46:00,
2013-08-31 20:51:00,71.7,71.0,29.92,WNW,292,1.4,7.0,97,0.00,,,0.00,Rainwise IP-100,2013-09-01 00:51:00,
2013-08-31 20:56:00,71.8,71.0,29.91,SSW,202,2.1,5.0,97,0.00,,,0.00,Rainwise IP-100,2013-09-01 00:56:00,
2013-08-31 21:01:00,71.8,71.0,29.92,WSW,247,1.4,7.0,97,0.00,,,0.00,Rainwise IP-100,2013-09-01 01:01:00,
2013-08-31 21:06:00,71.9,71.0,29.92,West,270,0.0,7.0,97,0.00,,,0.00,Rainwise IP-100,2013-09-01 01:06:00,
2013-08-31 21:11:00,71.9,71.0,29.92,SSW,202,3.3,5.0,97,0.00,,,0.00,Rainwise IP-100,2013-09-01 01:11:00,
2013-08-31 21:16:00,72.0,71.0,29.93,West,270,3.0,7.0,96,0.00,,,0.00,Rainwise IP-100,2013-09-01 01:16:00,
2013-08-31 21:21:00,72.0,71.0,29.93,WSW,247,1.4,9.0,96,0.00,,,0.00,Rainwise IP-100,2013-09-01 01:21:00,
2013-08-31 21:26:00,72.1,71.0,29.93,West,270,1.6,6.0,96,0.00,,,0.00,Rainwise IP-100,2013-09-01 01:26:00,
2013-08-31 21:31:00,72.0,71.0,29.93,WSW,247,0.0,5.0,96,0.00,,,0.00,Rainwise IP-100,2013-09-01 01:31:00,
2013-08-31 21:36:00,71.9,71.0,29.93,South,180,0.0,6.0,96,0.00,,,0.00,Rainwise IP-100,2013-09-01 01:36:00,
2013-08-31 21:41:00,71.9,71.0,29.93,West,270,4.2,6.0,96,0.00,,,0.00,Rainwise IP-100,2013-09-01 01:41:00,
2013-08-31 21:46:00,71.9,71.0,29.93,WSW,247,2.3,5.0,96,0.00,,,0.00,Rainwise IP-100,2013-09-01 01:46:00,
2013-08-31 21:51:00,72.0,71.0,29.93,WNW,292,1.4,6.0,96,0.00,,,0.00,Rainwise IP-100,2013-09-01 01:51:00,
2013-08-31 21:56:00,72.0,71.0,29.94,WSW,247,3.3,7.0,96,0.00,,,0.00,Rainwise IP-100,2013-09-01 01:56:00,
2013-08-31 22:01:00,72.0,71.0,29.94,WNW,292,3.5,8.0,96,0.00,,,0.00,Rainwise IP-100,2013-09-01 02:01:00,
2013-08-31 22:06:00,72.1,71.0,29.94,SSW,202,0.0,5.0,96,0.00,,,0.00,Rainwise IP-100,2013-09-01 02:06:00,
2013-08-31 22:11:00,72.1,71.0,29.94,WSW,247,1.2,4.0,96,0.00,,,0.00,Rainwise IP-100,2013-09-01 02:11:00,
2013-08-31 22:16:00,72.1,71.0,29.94,SW,225,0.0,4.0,96,0.00,,,0.00,Rainwise IP-100,2013-09-01 02:16:00,
2013-08-31 22:21:00,72.0,71.0,29.94,WNW,292,0.0,5.0,96,0.00,,,0.00,Rainwise IP-100,2013-09-01 02:21:00,
2013-08-31 22:26:00,72.0,71.0,29.93,WSW,247,4.2,6.0,96,0.00,,,0.00,Rainwise IP-100,2013-09-01 02:26:00,
2013-08-31 22:31:00,72.1,71.0,29.93,SSE,157,0.0,5.0,96,0.00,,,0.00,Rainwise IP-100,2013-09-01 02:31:00,
2013-08-31 22:36:00,72.1,71.0,29.93,SSE,157,1.2,5.0,96,0.00,,,0.00,Rainwise IP-100,2013-09-01 02:36:00,
2013-08-31 22:41:00,72.2,71.0,29.93,SSW,202,4.0,8.0,96,0.00,,,0.00,Rainwise IP-100,2013-09-01 02:41:00,
2013-08-31 22:46:00,72.3,71.0,29.93,WSW,247,0.0,8.0,96,0.00,,,0.00,Rainwise IP-100,2013-09-01 02:46:00,
2013-08-31 22:51:00,72.3,71.0,29.93,WNW,292,3.7,7.0,96,0.00,,,0.00,Rainwise IP-100,2013-09-01 02:51:00,
2013-08-31 22:56:00,72.3,71.0,29.93,NNE,22,0.0,8.0,96,0.00,,,0.00,Rainwise IP-100,2013-09-01 02:56:00,
2013-08-31 23:01:00,72.3,71.0,29.93,SW,225,2.8,8.0,96,0.00,,,0.00,Rainwise IP-100,2013-09-01 03:01:00,
2013-08-31 23:06:00,72.3,71.0,29.92,SSE,157,5.8,8.0,96,0.00,,,0.00,Rainwise IP-100,2013-09-01 03:06:00,
2013-08-31 23:11:00,72.3,71.0,29.93,WNW,292,0.0,7.0,97,0.00,,,0.00,Rainwise IP-100,2013-09-01 03:11:00,
2013-08-31 23:16:00,72.3,71.0,29.93,SSW,202,4.2,5.0,97,0.00,,,0.00,Rainwise IP-100,2013-09-01 03:16:00,
2013-08-31 23:21:00,72.2,71.0,29.93,NE,45,0.0,9.0,97,0.00,,,0.00,Rainwise IP-100,2013-09-01 03:21:00,
2013-08-31 23:26:00,72.2,71.0,29.93,SSE,157,3.3,7.0,97,0.00,,,0.00,Rainwise IP-100,2013-09-01 03:26:00,
2013-08-31 23:31:00,72.1,71.0,29.92,South,180,1.6,8.0,97,0.00,,,0.00,Rainwise IP-100,2013-09-01 03:31:00,
2013-08-31 23:36:00,72.1,71.0,29.93,ESE,112,0.0,11.0,97,0.00,,,0.00,Rainwise IP-100,2013-09-01 03:36:00,
2013-08-31 23:41:00,72.1,71.0,29.93,SSE,157,4.0,6.0,97,0.00,,,0.00,Rainwise IP-100,2013-09-01 03:41:00,
2013-08-31 23:46:00,72.1,71.0,29.93,SE,135,1.4,7.0,97,0.00,,,0.00,Rainwise IP-100,2013-09-01 03:46:00,
2013-08-31 23:51:00,72.1,71.0,29.93,WSW,247,5.8,7.0,97,0.00,,,0.00,Rainwise IP-100,2013-09-01 03:51:00,
2013-08-31 23:56:00,72.1,71.0,29.93,NNW,337,0.0,12.0,97,0.00,,,0.00,Rainwise IP-100,2013-09-01 03:56:00,